Location: ?
(35.4064°N, 139.3593°E)
Time: 18:49:27
(UTC+00:00)

ASTRO E2 - Pass Details

Date: 18 April 2024
Orbit: 430 x 434 km, 31.4° (Epoch: 26 May)

Event Time Altitude Azimuth Distance (km) Brightness Sun altitude
Exits shadow 17:47:59 15° 110° (ESE) 1,241 4.9 -25.9°
Drops below altitude 10° 17:48:48 10° 104° (ESE) 1,526 5.5 -25.8°
Enters shadow 18:46:20 -68° 273° (W) 12,323 9.6 -15.9°
Maximum altitude 19:24:06 41° 184° (S) 635 3.0 -8.8°
